Back to catalog

STARLINK-34355

AliveCommunicationsVLEO
NORAD 64306·PAYLOAD·🇺🇸 United States

Launched Jun 8, 2025 from Vandenberg Space Force Base

Loading…

Next Passes (next 24 hours)

TLE

FreshSource: CelesTrak SupGP

Epoch: Sep 14, 2026, 22:27 UTC

1 64306C 25123R   26257.93590278  .00030617  00000+0  10662-2 0  2577
2 64306  70.0005  75.8448 0003318 267.9407  42.9776 15.29528017    15

Track STARLINK-34355 in real time with AllMySat

Download on the App Store